Location: Pardubice
(50.0330°N, 15.7830°E)
Time: 11:10:50
(UTC+02:00)

Vanguard 1 - All Passes

Search period start: 07 October 2024 00:00
Search period end: 17 October 2024 00:00
Orbit: 649 x 3825 km, 34.3° (Epoch: 07 October)

Date Brightness Start Highest point End Pass type
(mag) Time Alt. Az. Time Alt. Az. Time Alt. Az.
07 Oct - 03:44:20 10° SE 03:49:03 11° ESE 03:53:51 10° ESE visible
07 Oct - 05:52:11 10° SSW 06:10:05 32° SE 06:27:32 10° E visible
07 Oct - 08:12:10 10° SW 08:33:34 47° S 08:50:47 10° ESE daylight
07 Oct - 10:36:35 10° WSW 10:57:08 46° SSW 11:11:02 10° SE daylight
07 Oct - 13:03:55 10° W 13:18:10 26° SW 13:27:55 10° S daylight
08 Oct - 03:57:10 10° SSE 04:07:46 16° SE 04:18:59 10° E visible
08 Oct - 06:10:29 10° SSW 06:29:22 37° SSE 06:47:42 10° E visible
08 Oct - 08:31:32 10° WSW 08:53:12 49° S 09:10:22 10° ESE daylight
08 Oct - 10:56:30 10° W 11:16:33 43° SSW 11:30:09 10° SE daylight
08 Oct - 13:24:41 10° W 13:37:00 22° SW 13:45:55 10° S daylight
09 Oct - 04:13:13 10° S 04:26:35 21° SE 04:41:04 10° E visible
09 Oct - 06:29:06 10° SW 06:48:44 41° SSE 07:07:41 10° E visible
09 Oct - 08:51:03 10° WSW 09:12:49 50° S 09:29:52 10° ESE daylight
09 Oct - 11:16:31 10° W 11:35:51 39° SSW 11:49:06 10° SE daylight
09 Oct - 13:46:02 10° W 13:55:42 17° SW 14:03:13 10° SSW daylight
10 Oct - 04:30:23 10° S 04:45:29 26° SE 05:02:08 10° E visible
10 Oct - 06:48:00 10° SW 07:08:13 45° SSE 07:27:31 10° E daylight
10 Oct - 09:10:41 10° WSW 09:32:25 50° S 09:49:16 10° ESE daylight
10 Oct - 11:36:39 10° W 11:55:01 35° SSW 12:07:50 10° SSE daylight
10 Oct - 14:08:56 10° WSW 14:14:17 12° WSW 14:18:56 10° SW daylight
11 Oct - 04:48:12 10° SSW 05:04:31 32° SE 05:22:43 10° E visible
11 Oct - 07:07:07 10° SW 07:27:45 48° SSE 07:47:15 10° ESE daylight
11 Oct - 09:30:25 10° WSW 09:51:58 48° SSW 10:08:33 10° SE daylight
11 Oct - 11:56:58 10° W 12:14:03 30° SW 12:26:17 10° SSE daylight
12 Oct - 02:54:27 10° SSE 03:02:54 14° SE 03:12:18 10° E visible
12 Oct - 05:06:28 10° SSW 05:23:39 36° SSE 05:42:57 10° E visible
12 Oct - 07:26:25 10° WSW 07:47:21 50° S 08:06:53 10° ESE daylight
12 Oct - 09:50:15 10° W 10:11:26 46° SSW 10:27:41 10° SE daylight
12 Oct - 12:17:33 10° W 12:32:56 25° SW 12:44:22 10° S daylight
13 Oct - 03:10:13 10° SSE 03:21:32 19° SE 03:34:50 10° E visible
13 Oct - 05:25:03 10° SW 05:42:54 41° SSE 06:03:01 10° E visible
13 Oct - 07:45:51 10° WSW 08:06:57 51° S 08:26:26 10° ESE daylight
13 Oct - 10:10:10 10° W 10:30:48 42° SSW 10:46:39 10° SE daylight
13 Oct - 12:38:35 10° W 12:51:40 20° SW 13:01:54 10° S daylight
14 Oct - 03:27:17 10° S 03:40:16 25° SE 03:56:07 10° E visible
14 Oct - 05:43:54 10° SW 06:02:16 45° SSE 06:22:55 10° E visible
14 Oct - 08:05:23 10° WSW 08:26:34 51° S 08:45:53 10° ESE daylight
14 Oct - 10:30:12 10° W 10:50:02 38° SSW 11:05:25 10° SSE daylight
14 Oct - 13:00:30 10° W 13:10:17 15° SW 13:18:27 10° SSW daylight
15 Oct - 03:45:03 10° SSW 03:59:08 30° SE 04:16:49 10° E visible
15 Oct - 06:02:56 10° SW 06:21:43 48° SSE 06:42:43 10° E visible
15 Oct - 08:25:01 10° WSW 08:46:08 50° S 09:05:12 10° SE daylight
15 Oct - 10:50:23 10° W 11:09:08 33° SW 11:23:53 10° SSE daylight
15 Oct - 13:25:27 10° WSW 13:28:46 11° WSW 13:31:53 10° SW daylight
16 Oct - 01:53:20 10° SE 01:58:22 12° ESE 02:03:57 10° ESE visible
16 Oct - 04:03:16 10° SSW 04:18:08 35° SE 04:37:10 10° E visible
16 Oct - 06:22:09 10° WSW 06:41:14 50° S 07:02:25 10° ESE visible
16 Oct - 08:44:44 10° W 09:05:38 47° SSW 09:24:22 10° SE daylight
16 Oct - 11:10:48 10° W 11:28:06 28° SW 11:42:00 10° S daylight
